EW1931 Weather Reports


time (UTC)temp
C
wind
direction
speed
KPH
gust
KPH
rain 1hr
cm
rain 24hr
cm
rain mn
cm
humidity
%
barometer
mb
20260508063011 9 274 8.0 12.9 0.00 0.00 0.00 66 924.5
20260508061513 9 251 8.0 11.3 0.00 0.00 0.00 65 924.4
20260508060109 10 265 9.7 12.9 0.00 0.00 0.00 64 924.4
20260508054552 10 260 11.3 16.1 0.00 0.00 0.00 62 924.3
20260508053114 10 265 11.3 14.5 0.00 0.00 0.00 62 924.5
20260508051531 10 261 11.3 16.1 0.00 0.00 0.00 61 924.3
20260508050031 11 260 12.9 14.5 0.00 0.00 0.00 60 924.3
20260508044512 12 275 11.3 12.9 0.00 0.00 0.00 56 924.5
20260508043012 13 272 11.3 16.1 0.00 0.00 0.00 53 924.5
20260508041614 14 270 12.9 19.3 0.00 0.00 0.00 50 924.5
20260508040109 15 286 19.3 25.7 0.00 0.00 0.00 49 924.5
20260508034535 14 282 20.9 29.0 0.00 0.00 0.00 50 924.4
20260508033033 13 282 20.9 25.7 0.00 0.00 0.00 52 924.3
20260508031515 11 295 9.7 12.9 0.00 0.00 0.00 54 924.1
20260508030023 12 291 9.7 12.9 0.00 0.00 0.00 52 923.9
20260508024606 13 276 9.7 12.9 0.00 0.00 0.00 52 923.8
20260508023057 14 269 9.7 12.9 0.00 0.00 0.00 50 923.5
20260508021541 16 265 9.7 12.9 0.00 0.00 0.00 47 923.5
20260508020045 17 258 11.3 16.1 0.00 0.00 0.00 44 923.4
20260508014521 17 245 12.9 24.1 0.00 0.00 0.00 43 923.3
20260508013020 18 261 20.9 29.0 0.00 0.00 0.00 42 923.1
20260508011508 18 211 14.5 24.1 0.00 0.00 0.00 41 923.0
20260508010001 18 246 14.5 20.9 0.00 0.00 0.00 36 923.1
20260508004544 18 273 24.1 51.5 0.00 0.00 0.00 36 923.2
20260508003042 19 319 24.1 33.8 0.00 0.00 0.00 30 923.1
20260508001524 20 312 14.5 20.9 0.00 0.00 0.00 31 922.8
20260508000025 20 305 12.9 22.5 0.00 0.00 0.00 31 922.7
20260507234505 20 283 16.1 25.7 0.00 0.00 0.00 31 922.7
20260507233018 20 280 20.9 43.5 0.00 0.00 0.00 30 922.6
20260507231547 20 288 19.3 30.6 0.00 0.00 0.00 31 922.6
20260507230046 20 340 20.9 29.0 0.00 0.00 0.00 30 922.7
20260507224531 20 349 22.5 33.8 0.00 0.00 0.00 30 922.7
20260507223029 20 319 16.1 24.1 0.00 0.00 0.00 31 922.7
20260507221509 19 321 17.7 43.5 0.00 0.00 0.00 32 922.9
20260507220009 20 333 17.7 35.4 0.00 0.00 0.00 30 922.9
20260507214558 20 324 27.4 37.0 0.00 0.00 0.00 29 922.9
20260507213100 20 303 12.9 24.1 0.00 0.00 0.00 31 923.1
20260507211529 19 331 19.3 29.0 0.00 0.00 0.00 37 923.2
20260507210028 18 263 20.9 29.0 0.00 0.00 0.00 44 923.5
20260507204515 16 298 9.7 19.3 0.00 0.00 0.00 51 923.5
20260507203009 16 338 29.0 95.0 0.00 0.00 0.00 47 923.8
20260507201551 18 344 11.3 17.7 0.00 0.00 0.00 35 923.2
20260507200051 18 325 9.7 16.1 0.00 0.00 0.00 36 923.2
20260507194559 18 316 16.1 32.2 0.00 0.00 0.00 32 923.2
20260507193037 20 355 19.3 29.0 0.00 0.00 0.00 32 923.1
20260507191522 18 315 16.1 24.1 0.00 0.00 0.00 33 923.2
20260507190014 18 320 14.5 29.0 0.00 0.00 0.00 32 923.2
20260507184556 19 304 12.9 30.6 0.00 0.00 0.00 31 923.2
20260507183055 20 338 24.1 37.0 0.00 0.00 0.00 32 923.3
20260507181534 19 323 24.1 35.4 0.00 0.00 0.00 35 923.5
20260507180036 18 330 24.1 35.4 0.00 0.00 0.00 37 923.7
20260507174517 19 340 22.5 33.8 0.00 0.00 0.00 37 923.6
20260507173025 18 325 22.5 40.2 0.00 0.00 0.00 39 923.8
20260507171608 19 336 20.9 32.2 0.00 0.00 0.00 37 923.9
20260507171502 19 344 24.1 35.4 0.00 0.00 0.00 37 923.9
20260507170110 18 331 25.7 43.5 0.00 0.00 0.00 38 923.8
20260507164541 17 336 12.9 20.9 0.00 0.00 0.00 41 924.0
20260507163031 16 200 9.7 17.7 0.00 0.00 0.00 42 924.0
20260507161510 15 248 6.4 12.9 0.00 0.00 0.00 45 924.2
20260507160006 13 231 9.7 14.5 0.00 0.00 0.00 47 924.3
20260507154551 12 221 8.0 16.1 0.00 0.00 0.00 50 924.3
20260507153042 11 198 9.7 12.9 0.00 0.00 0.00 51 924.4
20260507151520 11 183 11.3 16.1 0.00 0.00 0.00 48 924.6
20260507150018 10 180 9.7 14.5 0.00 0.00 0.00 49 924.6
20260507144602 10 5 3.2 9.7 0.00 0.00 0.00 50 924.8
20260507143114 9 15 4.8 12.9 0.00 0.00 0.00 50 924.7
20260507141550 9 21 14.5 19.3 0.00 0.00 0.00 50 924.8
20260507140040 9 335 11.3 17.7 0.00 0.00 0.00 52 924.7
20260507134520 10 355 14.5 19.3 0.00 0.00 0.00 52 924.7
20260507133016 8 311 12.9 17.7 0.00 0.00 0.00 51 924.3
20260507131555 8 309 9.7 14.5 0.00 0.00 0.00 50 924.4
20260507130052 7 19 4.8 16.1 0.00 0.00 0.00 52 924.3
20260507124531 6 323 14.5 19.3 0.00 0.00 0.00 54 924.4
20260507123037 6 296 12.9 17.7 0.00 0.00 0.00 54 924.2
20260507121511 6 300 12.9 19.3 0.00 0.00 0.00 55 924.1
20260507120026 5 309 12.9 17.7 0.00 0.00 0.00 58 923.9
20260507114558 5 310 12.9 16.1 0.00 0.00 0.00 57 923.9
20260507113053 5 306 11.3 17.7 0.00 0.00 0.00 55 923.8
20260507111531 6 286 9.7 17.7 0.00 0.00 0.00 55 923.7
20260507110036 6 288 11.3 14.5 0.00 0.00 0.00 55 923.8
20260507104515 6 267 11.3 16.1 0.00 0.00 0.00 56 923.7
20260507103013 6 223 12.9 16.1 0.00 0.00 0.00 56 923.8
20260507101559 6 244 11.3 16.1 0.00 0.00 0.00 58 923.7
20260507100050 6 221 11.3 16.1 0.00 0.00 0.00 57 923.4
20260507094532 6 355 6.4 9.7 0.00 0.00 0.00 56 923.5
20260507093030 6 19 11.3 16.1 0.00 0.00 0.00 57 923.6
20260507091510 6 13 12.9 16.1 0.00 0.00 0.00 57 923.5
20260507090009 6 9 12.9 17.7 0.00 0.00 0.00 56 923.3
20260507084555 6 26 11.3 16.1 0.00 0.00 0.00 57 923.1
20260507083051 6 10 9.7 16.1 0.00 0.00 0.00 58 923.1
20260507081542 6 37 9.7 14.5 0.00 0.00 0.00 59 923.2
20260507080036 6 36 11.3 16.1 0.00 0.00 0.00 59 923.1
20260507074538 6 23 9.7 11.3 0.00 0.00 0.00 58 923.0
20260507073030 8 35 8.0 11.3 0.00 0.00 0.00 55 923.1
20260507071535 8 80 6.4 8.0 0.00 0.00 0.00 55 923.1
20260507070033 8 86 8.0 12.9 0.00 0.00 0.00 55 923.1
20260507064537 9 47 11.3 20.9 0.00 0.00 0.00 55 923.1